SCP
0 0 0 0 0 0 0 0 0 0 0 0 0 0 0 0 0 0 0 0 0 0 0 0 0 0 0 0 0 0 0 0 0 0 0 0 0 0 0 0 0 0 1 1
0 0 0 0 0 0 0 0 0 0 0 0 0 0 0 0 0 0 0 0 0 0 0 0 0 0 0 0 0 0 0 0 0 0 0 0 0 0 0 0 0 0 1 1
0 0 0 0 0 0 0 0 0 0 0 0 0 0 0 0 0 0 0 0 0 0 0 0 0 0 0 0 0 0 0 0 0 0 0 0 0 0 0 0 0 0 1 1
0 0 0 0 0 0 0 0 0 0 0 0 0 0 0 0 0 0 0 0 0 0 0 0 0 0 0 0 0 0 0 0 0 0 0 0 0 0 0 0 0 0 1 1
0 0 0 0 0 0 0 0 0 0 0 0 0 0 0 0 0 0 0 0 0 0 0 0 0 0 0 0 0 0 0 0 0 0 0 0 0 0 0 0 0 0 0 0
0 0 0 0 0 0 0 0 0 0 0 0 0 0 0 0 0 0 0 0 0 0 0 0 0 0 0 0 0 0 0 0 0 0 0 0 0 0 0 0 0 0 0 0
0 0 0 0 0 0 0 0 0 0 0 0 0 0 0 0 0 0 0 0 0 0 0 0 0 0 0 0 0 0 0 0 0 0 0 0 0 0 0 0 0 0 0 0
0 0 0 0 0 0 0 0 0 0 0 0 0 0 0 0 0 0 0 0 0 0 0 0 0 0 0 0 0 0 0 0 0 0 0 0 0 0 0 0 0 0 0 0
0 0 0 0 0 0 0 0 0 0 0 0 0 0 0 0 0 0 0 0 0 0 0 0 0 0 0 0 0 0 0 0 0 0 0 0 0 0 0 0 0 0 0 0
0 0 0 0 0 0 0 0 0 0 0 0 0 0 0 0 0 0 0 0 0 0 0 0 0 0 0 0 0 0 0 0 0 0 0 0 0 0 0 0 0 0 0 0
0 0 0 0 0 0 0 0 0 0 0 0 0 0 0 0 0 0 0 0 0 0 0 0 0 0 0 0 0 0 0 0 0 0 0 0 0 0 0 0 0 0 0 0
0 0 0 0 0 0 0 0 0 0 0 0 0 0 0 0 0 0 0 0 0 0 0 0 0 0 0 0 0 0 0 0 0 0 0 0 0 0 0 0 0 0 0 0
0 0 0 0 0 0 0 0 0 0 0 0 0 0 0 0 0 0 0 0 0 0 0 0 0 0 0 0 0 0 0 0 0 0 0 0 0 0 0 0 0 0 0 0
0 0 0 0 0 0 0 0 0 0 0 0 0 0 0 0 0 0 0 0 0 0 0 0 0 0 0 0 0 0 0 0 0 0 0 0 0 0 0 0 0 0 0 0
0 0 0 0 0 0 0 0 0 0 0 0 0 0 0 0 0 0 0 0 0 0 0 0 0 0 0 0 0 0 0 0 0 0 0 0 0 0 0 0 0 0 0 0
0 0 0 0 0 0 0 0 0 0 0 0 0 0 0 0 0 0 0 0 0 0 0 0 0 0 0 0 0 0 0 0 0 0 0 0 0 0 0 0 0 0 0 0
0 0 0 0 0 0 0 0 0 0 0 0 0 0 0 0 0 0 0 0 0 0 0 0 0 0 0 0 0 0 0 0 0 0 0 0 0 0 0 0 0 0 0 0
0 0 0 0 0 0 0 0 0 0 0 0 0 0 0 0 0 0 0 0 0 0 0 0 0 0 0 0 0 0 0 0 0 0 0 0 0 0 0 0 0 0 0 0
0 0 0 0 0 0 0 0 0 0 0 0 0 0 0 0 0 0 0 0 0 0 0 0 0 0 0 0 0 0 0 0 0 0 0 0 0 0 0 0 0 0 0 0
0 0 0 0 0 0 0 0 0 0 0 0 0 0 0 0 0 0 0 0 0 0 0 0 0 0 0 0 0 0 0 0 0 0 0 0 0 0 0 0 0 0 0 0
0 0 0 0 0 0 0 0 0 0 0 0 0 0 0 0 0 0 0 0 0 0 0 0 0 0 0 0 0 0 0 0 0 0 0 0 0 0 0 0 0 0 0 0
0 0 0 0 0 0 0 0 0 0 0 0 0 0 0 0 0 0 0 0 0 0 0 0 0 0 0 0 0 0 0 0 0 0 0 0 0 0 0 0 0 0 0 0
0 0 0 0 0 0 0 0 0 0 0 0 0 0 0 0 0 0 0 0 0 0 0 0 0 0 0 0 0 0 0 0 0 0 0 0 0 0 0 0 0 0 0 0
0 0 0 0 0 0 0 0 0 0 0 0 0 0 0 0 0 0 0 0 0 0 0 0 0 0 0 0 0 0 0 0 0 0 0 0 0 0 0 0 0 0 0 0
0 0 0 0 0 0 0 0 0 0 0 0 0 0 0 0 0 0 0 0 0 0 0 0 0 0 0 0 0 0 0 0 0 0 0 0 0 0 0 0 0 0 0 0
0 0 0 0 0 0 0 0 0 0 0 0 0 0 0 0 0 0 0 0 0 0 0 0 0 0 0 0 0 0 0 0 0 0 0 0 0 0 0 0 0 0 0 0
Wind_Speed
6 8 7 6 3 2 2 4 5 1 1 5 8 8 5 8 9 9 8 6 4 3 4 5 6 6 7 8 9 9 10 10 8 7 7 7 7 6 6 5 7 7 7 7
8 6 4 5 5 3 2 4 2 2 1 5 6 8 5 8 10 9 8 7 5 3 3 4 5 6 7 8 9 10 10 10 9 7 7 6 7 6 6 6 6 7 7 7
8 7 7 7 6 4 1 3 2 1 2 4 6 6 5 6 8 8 9 8 6 4 4 4 5 6 7 7 8 8 9 9 9 9 7 6 6 5 5 7 6 7 7 7
8 6 7 6 4 2 2 2 1 2 5 1 3 4 4 3 7 9 10 9 7 5 3 4 5 6 7 8 8 8 8 8 8 8 8 9 7 7 7 6 6 7 7 7
8 6 6 4 4 1 4 3 1 3 5 5 4 6 3 3 4 5 7 9 7 5 4 3 4 6 7 7 6 7 7 7 7 7 7 7 7 6 6 6 7 7 6 7
8 4 3 4 5 3 5 5 4 4 6 5 1 5 1 2 2 1 1 5 7 6 4 4 3 5 5 5 5 5 6 6 6 7 7 7 8 8 8 8 8 7 6 6
8 6 4 3 5 5 6 6 5 6 5 1 2 5 3 3 2 3 3 3 5 5 5 4 4 4 5 6 6 5 5 5 6 6 7 7 7 8 8 8 7 7 6 6
8 7 4 2 2 2 2 6 5 4 2 1 4 5 1 2 1 3 4 4 4 6 5 5 4 5 5 5 5 5 5 5 5 6 6 6 6 5 5 7 7 7 6 7
5 6 5 3 1 2 3 2 4 5 3 4 3 2 1 3 3 4 4 5 6 6 6 5 5 5 5 5 5 5 5 5 5 5 6 6 6 6 7 7 7 6 6 7
3 6 6 5 4 3 4 1 3 5 4 3 2 3 0 1 1 2 4 6 7 7 7 6 5 5 5 5 5 5 5 5 5 4 4 4 6 6 6 6 7 8 8 7
3 5 7 6 6 3 5 4 4 4 4 5 2 2 3 2 3 4 4 4 5 7 7 6 6 5 5 6 5 5 5 5 4 4 4 5 5 6 6 5 6 7 7 7
0 4 5 4 3 2 3 3 5 4 2 3 4 0 4 2 4 6 6 4 5 6 7 7 6 6 6 6 5 5 5 4 4 4 4 5 5 5 6 6 6 7 7 7
5 5 5 6 6 6 5 4 5 4 3 4 4 1 4 3 5 6 6 6 6 7 8 7 7 7 6 6 6 5 5 5 4 4 5 5 5 6 6 6 6 7 7 7
4 6 6 3 2 5 6 7 7 8 4 4 5 6 5 6 6 4 3 5 6 7 8 8 7 7 6 6 6 5 5 4 4 4 5 5 5 5 6 6 7 7 7 7
5 6 4 1 1 3 5 8 10 11 7 6 5 7 10 7 6 5 4 3 6 8 8 8 8 7 7 6 6 5 5 4 5 5 5 5 5 5 5 6 6 6 7 7
6 5 5 6 4 5 7 8 10 10 8 9 9 9 4 4 4 5 4 4 6 7 8 8 8 8 7 6 6 5 4 4 4 5 5 4 5 5 5 6 6 6 7 7
7 7 6 5 5 5 9 11 12 7 8 7 5 2 5 6 6 6 5 4 6 6 6 7 8 7 7 6 6 5 4 4 4 5 5 4 5 5 5 5 6 6 7 7
7 7 4 3 6 8 4 5 7 6 6 8 7 7 6 7 6 6 5 6 6 5 6 7 7 7 7 6 6 5 4 5 5 5 4 4 4 5 5 5 6 6 6 6
4 6 5 4 5 4 4 6 7 6 5 5 6 4 3 4 4 2 2 3 5 4 4 5 6 6 6 6 6 6 5 5 5 5 4 4 4 4 5 5 6 6 6 7
3 5 6 5 6 5 5 8 5 5 6 4 4 2 1 3 2 4 5 4 3 3 4 4 5 6 7 6 6 7 7 6 6 5 5 5 5 5 6 6 6 5 6 6
8 7 8 8 7 4 6 6 6 7 4 4 3 2 2 3 4 5 5 4 4 3 3 4 5 6 6 6 6 8 8 7 5 5 6 6 6 7 6 6 6 6 6 6
10 8 8 7 8 5 7 8 7 3 4 2 2 1 2 3 3 4 4 4 4 3 2 3 5 5 5 6 7 9 9 7 5 6 7 8 8 7 6 7 7 6 6 7
8 6 4 6 1 5 3 2 2 2 2 1 1 1 2 2 2 3 4 4 4 4 3 3 4 5 5 6 7 9 9 7 7 8 9 9 9 8 8 8 8 7 6 6
7 4 6 6 6 5 4 3 2 3 3 1 1 0 0 1 2 3 4 5 5 6 5 4 4 5 5 5 5 8 9 8 8 10 10 9 9 9 9 7 7 7 7 6
6 9 7 7 5 6 6 5 4 3 4 4 4 4 3 3 4 5 5 7 7 7 6 5 5 5 7 6 6 6 7 8 9 10 10 10 10 9 9 9 8 9 8 7
9 10 9 8 10 9 8 9 7 7 6 6 6 7 6 6 6 6 7 7 7 8 8 7 8 8 8 8 8 8 8 8 9 10 10 8 8 8 8 8 8 11 12 9
Wind_Direction
172 194 194 186 211 319 287 274 287 54 115 242 255 266 226 198 215 225 228 235 257 301 349 1 355 351 351 356 352 355 356 358 355 353 348 346 345 341 345 344 343 328 319 311
173 173 112 113 133 163 214 268 281 137 125 266 277 272 253 214 223 233 241 241 248 277 321 349 349 355 352 351 349 353 360 358 357 356 345 340 340 337 348 343 342 341 334 325
190 119 136 146 149 164 176 308 321 285 177 221 281 254 204 208 224 231 239 247 250 270 310 335 344 349 341 346 349 348 355 353 359 356 349 346 351 343 358 354 352 349 347 341
104 123 152 153 129 268 150 82 172 226 256 237 285 294 152 187 221 230 232 231 238 242 276 308 324 337 339 347 344 343 352 356 359 354 360 357 356 355 351 346 350 352 2 1
115 137 156 137 89 345 84 104 203 252 267 266 214 270 138 165 243 236 230 227 231 234 254 285 312 327 333 337 340 339 347 351 357 356 358 349 0 354 351 352 358 360 7 6
103 98 58 90 91 83 133 167 172 215 244 246 158 276 271 149 327 342 214 218 219 224 235 263 294 311 324 333 338 339 342 349 353 349 353 359 355 353 356 358 358 355 360 0
130 118 105 136 153 151 208 242 230 211 211 184 107 262 282 49 322 286 276 226 209 217 233 254 280 306 324 331 337 333 337 345 349 348 351 354 352 348 355 354 355 351 352 356
169 149 126 145 280 207 219 269 288 300 314 129 189 250 50 77 282 258 246 237 213 215 231 251 272 291 306 318 323 323 329 334 343 344 348 350 347 341 350 349 345 348 348 349
186 124 111 87 69 270 202 224 338 294 287 267 201 239 238 166 227 229 233 228 224 221 226 244 262 280 299 310 313 307 308 317 332 338 341 344 346 344 341 337 340 343 346 343
158 138 145 136 155 70 346 122 220 257 283 277 219 234 323 184 309 238 236 235 231 226 229 240 253 266 287 299 298 294 288 300 312 320 332 336 338 340 335 331 343 341 342 345
202 171 152 183 218 191 169 195 236 257 280 294 310 94 67 326 324 309 292 255 234 225 230 239 251 266 283 288 285 285 281 286 298 305 318 319 334 334 331 335 339 333 335 339
157 242 180 159 96 352 252 244 235 266 230 272 287 310 112 267 294 289 284 262 232 224 227 237 248 261 273 285 291 294 287 279 284 290 300 308 324 321 325 337 336 333 337 337
162 218 190 169 176 186 209 206 225 253 260 243 264 73 122 260 286 281 268 255 227 218 221 229 237 251 268 281 287 288 284 278 272 272 286 302 317 323 330 331 335 329 333 331
224 228 252 293 77 159 185 188 205 220 243 252 249 293 316 322 326 318 275 245 229 219 220 228 235 244 259 273 282 292 289 277 268 266 278 298 313 320 324 332 328 326 329 328
234 236 221 223 122 207 217 198 199 221 245 271 299 298 306 326 327 317 296 252 227 225 223 227 234 243 252 262 274 291 297 277 263 265 276 293 305 309 315 320 320 318 319 321
221 229 203 202 198 229 240 225 212 228 246 257 278 286 297 316 298 288 274 250 238 231 227 228 232 239 247 254 264 276 280 275 265 268 277 288 294 305 308 318 321 321 319 321
194 210 217 206 174 228 239 216 201 205 214 231 252 323 338 313 315 308 304 273 259 249 233 229 232 239 250 259 269 282 306 296 274 275 280 284 292 302 309 316 314 314 313 318
199 203 221 219 194 229 97 105 177 200 216 223 254 287 303 308 306 288 279 273 271 254 236 229 229 231 239 247 251 268 273 269 268 273 279 281 283 289 295 301 307 310 314 316
247 208 220 228 225 234 170 172 180 197 184 195 231 268 309 319 270 150 53 289 274 270 248 236 233 234 237 243 252 259 260 262 270 275 273 270 269 277 289 299 307 315 315 314
194 233 235 223 237 228 146 135 165 206 180 163 214 261 320 284 280 60 32 349 308 272 250 239 229 232 237 241 246 258 267 267 267 266 259 259 261 268 276 288 298 305 304 306
187 203 223 229 241 241 119 139 174 210 146 135 199 253 265 276 351 5 348 336 325 303 263 240 235 235 237 239 239 251 261 265 268 257 252 250 250 257 266 276 280 285 291 298
195 194 202 208 223 205 135 171 202 69 87 148 207 252 281 299 328 343 350 350 342 323 300 258 247 245 240 238 242 254 264 273 267 249 246 247 247 250 252 253 265 273 279 283
214 217 207 215 218 77 152 197 35 326 253 222 248 282 284 285 347 4 8 8 3 350 335 298 272 269 260 245 247 262 271 274 261 251 247 248 250 246 247 252 256 261 263 272
189 189 212 220 215 186 179 196 212 242 245 257 252 285 226 85 43 35 31 23 15 10 1 339 307 290 288 282 265 270 282 281 268 261 260 255 253 250 242 240 250 254 260 265
177 181 207 222 177 171 197 195 182 170 162 141 114 90 77 82 64 49 44 32 22 17 11 2 347 335 328 323 310 300 297 289 278 271 268 265 259 257 258 248 242 248 249 253
187 191 199 218 189 188 175 161 166 161 147 137 125 104 82 73 69 62 53 38 28 23 17 13 7 357 349 345 341 337 325 306 289 281 277 272 267 259 256 257 248 227 237 233